Weather History for Red Oak, IA

Change the Weather History Date:

Friday, April 25, 2014

  Actual Average Record
Temperature  
Mean Temperature 58 °F -  
Max Temperature 80 °F 71 °F 93 °F (2012)
Min Temperature 35 °F 43 °F 28 °F (2013)
Degree Days  
Heating Degree Days 8    
Growing Degree Days 8 (Base 50)    
Moisture  
Dew Point 42 °F    
Average Humidity 62    
Maximum Humidity 100    
Minimum Humidity 20    
Precipitation  
Precipitation 0.00 in - - ()
Sea Level Pressure  
Sea Level Pressure 29.81 in    
Wind  
Wind Speed 5 mph (SW)    
Max Wind Speed 25 mph    
Max Gust Speed 31 mph    
Visibility 8 miles    
Events Fog    
Averages and records for this station are not official NWS values.
T = Trace of Precipitation, MM = Missing Value Source: NWS Daily Summary

Daily Weather History Graph

Daily Weather History Graph

Search for Another Location

Airport:

Trip Planner

Search our weather history database for the weather conditions in past years. The results will help you decide how hot, cold, wet, or windy it might be!

Date:

Astronomy

Apr. 25, 2014 Rise Set
Actual Time 6:27 AM CDT 8:11 PM CDT
Civil Twilight 5:57 AM CDT 8:40 PM CDT
Nautical Twilight 5:22 AM CDT 9:16 PM CDT
Astronomical Twilight 4:44 AM CDT 9:54 PM CDT
Moon 4:17 AM CDT (4/25) 4:33 PM CDT (4/25)
Length of Visible Light 14h 43m
Length of Day
13h 44m
Waning Crescent, 15% of the Moon is Illuminated
Apr 25
Waning Crescent
Apr 29
New
May 6
First Quarter
May 14
Full
May 21
Last Quarter

Hourly Weather History & Observations

Time (CDT) Temp. Windchill Dew Point Humidity Pressure Visibility Wind Dir Wind Speed Gust Speed Precip Events Conditions
12:15 AM 42.8 °F - 41.0 °F 93% 29.83 in 5.0 mi Calm Calm - N/A   Clear
12:35 AM 41.0 °F - 41.0 °F 100% 29.83 in 10.0 mi Calm Calm - N/A   Clear
12:55 AM 39.2 °F - 39.2 °F 100% 29.83 in 9.0 mi Calm Calm - N/A   Clear
1:15 AM 41.0 °F - 39.2 °F 93% 29.83 in 10.0 mi Calm Calm - N/A   Clear
1:35 AM 39.2 °F - 39.2 °F 100% 29.83 in 3.0 mi Calm Calm - N/A   Clear
1:55 AM 41.0 °F - 41.0 °F 100% 29.83 in 0.2 mi Calm Calm - N/A Fog Fog
2:15 AM 42.8 °F - 42.8 °F 100% 29.83 in 0.2 mi Calm Calm - N/A Fog Fog
2:35 AM 41.0 °F - 41.0 °F 100% 29.83 in 0.5 mi Calm Calm - N/A Fog Fog
2:55 AM 42.8 °F - 42.8 °F 100% 29.83 in 0.8 mi Calm Calm - N/A   Mist
3:15 AM 41.0 °F - 41.0 °F 100% 29.83 in 2.0 mi Calm Calm - N/A   Clear
3:35 AM 41.0 °F - 41.0 °F 100% 29.83 in 0.8 mi Calm Calm - N/A   Mist
3:55 AM 41.0 °F - 41.0 °F 100% 29.84 in 0.8 mi Calm Calm - N/A   Mist
4:15 AM 42.8 °F - 42.8 °F 100% 29.85 in 5.0 mi Calm Calm - N/A   Clear
4:35 AM 37.4 °F - 37.4 °F 100% 29.85 in 7.0 mi Calm Calm - N/A   Clear
4:55 AM 39.2 °F - 39.2 °F 100% 29.84 in 1.2 mi Calm Calm - N/A   Clear
5:15 AM 41.0 °F 39.0 °F 41.0 °F 100% 29.84 in 2.0 mi SSW 3.5 mph - N/A   Clear
5:35 AM 41.0 °F 39.0 °F 41.0 °F 100% 29.84 in 3.0 mi SSW 3.5 mph - N/A   Clear
5:55 AM 41.0 °F - 41.0 °F 100% 29.85 in 2.5 mi Calm Calm - N/A   Clear
6:15 AM 35.6 °F - 35.6 °F 100% 29.85 in 0.2 mi Calm Calm - N/A Fog Fog
6:35 AM 37.4 °F 34.9 °F 35.6 °F 93% 29.86 in 0.2 mi SSW 3.5 mph - N/A Fog Fog
6:55 AM 37.4 °F - 37.4 °F 100% 29.87 in 1.0 mi Calm Calm - N/A   Clear
7:15 AM 39.2 °F - 39.2 °F 100% 29.86 in 2.0 mi Calm Calm - N/A   Clear
7:35 AM 41.0 °F - 41.0 °F 100% 29.86 in 4.0 mi Calm Calm - N/A   Clear
7:55 AM 44.6 °F - 42.8 °F 93% 29.87 in 10.0 mi Calm Calm - N/A   Mostly Cloudy
8:15 AM 46.4 °F - 42.8 °F 87% 29.87 in 10.0 mi Calm Calm - N/A   Mostly Cloudy
8:35 AM 48.2 °F - 44.6 °F 87% 29.87 in 10.0 mi South 3.5 mph - N/A   Partly Cloudy
8:55 AM 51.8 °F - 44.6 °F 76% 29.87 in 10.0 mi South 6.9 mph - N/A   Clear
9:15 AM 55.4 °F - 44.6 °F 67% 29.86 in 10.0 mi South 8.1 mph - N/A   Partly Cloudy
9:35 AM 57.2 °F - 44.6 °F 63% 29.86 in 10.0 mi South 9.2 mph - N/A   Scattered Clouds
9:55 AM 59.0 °F - 44.6 °F 59% 29.86 in 10.0 mi SSW 15.0 mph - N/A   Scattered Clouds
10:15 AM 60.8 °F - 42.8 °F 52% 29.86 in 10.0 mi SSW 11.5 mph - N/A   Partly Cloudy
10:35 AM 62.6 °F - 42.8 °F 48% 29.86 in 10.0 mi SSW 10.4 mph - N/A   Clear
10:55 AM 62.6 °F - 44.6 °F 52% 29.86 in 10.0 mi South 10.4 mph - N/A   Clear
11:15 AM 64.4 °F - 42.8 °F 45% 29.86 in 10.0 mi SW 10.4 mph 17.3 mph N/A   Clear
11:35 AM 68.0 °F - 42.8 °F 40% 29.86 in 10.0 mi SW 13.8 mph - N/A   Clear
11:55 AM 69.8 °F - 42.8 °F 38% 29.85 in 10.0 mi WSW 17.3 mph - N/A   Clear
12:15 PM 69.8 °F - 42.8 °F 38% 29.84 in 10.0 mi WSW 16.1 mph 24.2 mph N/A   Clear
12:35 PM 69.8 °F - 42.8 °F 38% 29.84 in 10.0 mi SW 20.7 mph 26.5 mph N/A   Clear
12:55 PM 71.6 °F - 42.8 °F 35% 29.83 in 10.0 mi SW 17.3 mph 23.0 mph N/A   Clear
1:15 PM 73.4 °F - 41.0 °F 31% 29.82 in 10.0 mi SW 19.6 mph 26.5 mph N/A   Clear
1:35 PM 75.2 °F - 41.0 °F 29% 29.82 in 10.0 mi SW 23.0 mph - N/A   Clear
1:55 PM 75.2 °F - 41.0 °F 29% 29.81 in 10.0 mi SW 15.0 mph 27.6 mph N/A   Clear
2:15 PM 75.2 °F - 41.0 °F 29% 29.81 in 10.0 mi SW 17.3 mph 26.5 mph N/A   Clear
2:35 PM 77.0 °F - 41.0 °F 28% 29.80 in 10.0 mi WSW 16.1 mph 29.9 mph N/A   Clear
2:55 PM 77.0 °F - 42.8 °F 29% 29.79 in 10.0 mi SW 16.1 mph 24.2 mph N/A   Clear
3:15 PM 78.8 °F - 41.0 °F 26% 29.79 in 10.0 mi SW 18.4 mph - N/A   Clear
3:35 PM 78.8 °F - 37.4 °F 23% 29.78 in 10.0 mi SW 24.2 mph 29.9 mph N/A   Clear
3:55 PM 78.8 °F - 37.4 °F 23% 29.77 in 10.0 mi SW 25.3 mph - N/A   Clear
4:15 PM 78.8 °F - 37.4 °F 23% 29.76 in 10.0 mi WSW 23.0 mph 31.1 mph N/A   Clear
4:35 PM 78.8 °F - 35.6 °F 21% 29.76 in 10.0 mi SW 18.4 mph 25.3 mph N/A   Clear
4:55 PM 80.6 °F - 35.6 °F 20% 29.76 in 10.0 mi West 16.1 mph 24.2 mph N/A   Clear
5:15 PM 80.6 °F - 37.4 °F 21% 29.75 in 10.0 mi WSW 16.1 mph 21.9 mph N/A   Clear
5:35 PM 78.8 °F - 39.2 °F 24% 29.75 in 10.0 mi WSW 13.8 mph 20.7 mph N/A   Clear
5:55 PM 78.8 °F - 39.2 °F 24% 29.75 in 10.0 mi WSW 12.7 mph 18.4 mph N/A   Partly Cloudy
6:15 PM 78.8 °F - 41.0 °F 26% 29.74 in 10.0 mi WSW 10.4 mph 18.4 mph N/A   Partly Cloudy
6:35 PM 77.0 °F - 41.0 °F 28% 29.74 in 10.0 mi SSW 19.6 mph - N/A   Mostly Cloudy
6:55 PM 75.2 °F - 42.8 °F 31% 29.75 in 10.0 mi SSW 16.1 mph 23.0 mph N/A   Scattered Clouds
7:15 PM 73.4 °F - 42.8 °F 33% 29.75 in 10.0 mi SSW 12.7 mph - N/A   Clear
7:35 PM 73.4 °F - 42.8 °F 33% 29.75 in 10.0 mi SSW 13.8 mph - N/A   Clear
7:55 PM 71.6 °F - 42.8 °F 35% 29.76 in 10.0 mi SSW 10.4 mph - N/A   Clear
8:15 PM 68.0 °F - 44.6 °F 43% 29.76 in 10.0 mi SSW 8.1 mph - N/A   Clear
8:35 PM 66.2 °F - 44.6 °F 46% 29.76 in 10.0 mi SSW 5.8 mph - N/A   Clear
8:55 PM 64.4 °F - 44.6 °F 49% 29.77 in 10.0 mi SSW 4.6 mph - N/A   Clear
9:15 PM 62.6 °F - 44.6 °F 52% 29.78 in 10.0 mi SSW 6.9 mph - N/A   Clear
9:35 PM 60.8 °F - 46.4 °F 59% 29.78 in 10.0 mi South 3.5 mph - N/A   Clear
9:55 PM 60.8 °F - 44.6 °F 55% 29.79 in 10.0 mi Calm Calm - N/A   Clear
10:15 PM 60.8 °F - 44.6 °F 55% 29.79 in 10.0 mi Calm Calm - N/A   Clear
10:35 PM 59.0 °F - 44.6 °F 59% 29.79 in 10.0 mi Calm Calm - N/A   Clear
11:15 PM 59.0 °F - 44.6 °F 59% 29.79 in 10.0 mi South 4.6 mph - N/A   Clear
11:35 PM 57.2 °F - 44.6 °F 63% 29.79 in 10.0 mi South 4.6 mph - N/A   Clear
11:55 PM 57.2 °F - 46.4 °F 67% 29.78 in 10.0 mi South 5.8 mph - N/A   Clear